New York Downtown Manhattan/w, NY

3:24 AM EST on November 24, 2017 (GMT -0500)
New York Downtown Manhattan/w

Weather History for KJRB - November, 2013

Change the Weather History Date:

Friday, November 29, 2013

  Actual Average (KEWR) Record (KEWR)
Temperature  
Mean Temperature 38 °F -  
Max Temperature 42 °F 50 °F 70 °F (1990)
Min Temperature 32 °F 35 °F 15 °F (1955)
Degree Days  
Heating Degree Days 28    
Moisture  
Dew Point 19 °F    
Average Humidity 51    
Maximum Humidity 65    
Minimum Humidity 39    
Precipitation  
Precipitation 0.00 in - - ()
Sea Level Pressure  
Sea Level Pressure 30.60 in    
Wind  
Wind Speed 5 mph (WSW)    
Max Wind Speed 9 mph    
Max Gust Speed 22 mph    
Visibility 10 miles    
Events      
Averages and records for this station are not official NWS values.
T = Trace of Precipitation, MM = Missing Value Source: NWS Daily Summary

Daily Weather History Graph

Daily Weather History Graph

Search for Another Location

Airport or City:

Trip Planner

Search our weather history database for the weather conditions in past years. The results will help you decide how hot, cold, wet, or windy it might be!

Date:

Astronomy

Nov. 29, 2013 Rise Set
Actual Time 6:58 AM EST 4:29 PM EST
Civil Twilight 6:28 AM EST 5:00 PM EST
Nautical Twilight 5:54 AM EST 5:34 PM EST
Astronomical Twilight 5:21 AM EST 6:06 PM EST
Moon 3:00 AM EST (11/29) 2:13 PM EST (11/29)
Length of Visible Light 10h 31m
Length of Day
9h 31m
Waning Crescent, 14% of the Moon is Illuminated
Nov 29
Waning Crescent
Dec 2
New
Dec 9
First Quarter
Dec 17
Full
Dec 25
Last Quarter

Hourly Weather History & Observations

Time (EST) Temp. Windchill Dew Point Humidity Pressure Visibility Wind Dir Wind Speed Gust Speed Precip Events Conditions
12:15 AM 33.8 °F 28.6 °F 15.8 °F 48% 30.49 in 10.0 mi WSW 5.8 mph - N/A   Overcast
12:35 AM 33.8 °F 29.6 °F 14.0 °F 44% 30.49 in 10.0 mi West 4.6 mph - N/A   Overcast
12:55 AM 33.8 °F 29.6 °F 14.0 °F 44% 30.49 in 10.0 mi West 4.6 mph - N/A   Overcast
1:15 AM 33.8 °F 28.6 °F 15.8 °F 48% 30.49 in 10.0 mi West 5.8 mph - N/A   Overcast
1:35 AM 33.8 °F 29.6 °F 14.0 °F 44% 30.49 in 10.0 mi West 4.6 mph - N/A   Overcast
1:55 AM 33.8 °F 27.7 °F 15.8 °F 48% 30.49 in 10.0 mi West 6.9 mph - N/A   Overcast
2:15 AM 33.8 °F 29.6 °F 17.6 °F 52% 30.49 in 10.0 mi West 4.6 mph - N/A   Overcast
2:35 AM 33.8 °F 29.6 °F 17.6 °F 52% 30.49 in 10.0 mi SW 4.6 mph - N/A   Overcast
2:55 AM 33.8 °F 28.6 °F 17.6 °F 52% 30.49 in 10.0 mi West 5.8 mph - N/A   Overcast
3:15 AM 33.8 °F 30.8 °F 17.6 °F 52% 30.49 in 10.0 mi West 3.5 mph - N/A   Overcast
3:35 AM 33.8 °F 27.7 °F 19.4 °F 56% 30.49 in 10.0 mi West 6.9 mph - N/A   Overcast
3:55 AM 33.8 °F 28.6 °F 21.2 °F 60% 30.49 in 10.0 mi West 5.8 mph - N/A   Overcast
4:15 AM 33.8 °F 28.6 °F 21.2 °F 60% 30.50 in 10.0 mi West 5.8 mph - N/A   Overcast
4:35 AM 33.8 °F 27.7 °F 21.2 °F 60% 30.50 in 10.0 mi West 6.9 mph - N/A   Overcast
4:55 AM 33.8 °F 27.7 °F 21.2 °F 60% 30.50 in 10.0 mi West 6.9 mph - N/A   Overcast
5:15 AM 33.8 °F 27.7 °F 21.2 °F 60% 30.51 in 10.0 mi West 6.9 mph - N/A   Overcast
5:35 AM 33.8 °F 28.6 °F 21.2 °F 60% 30.51 in 10.0 mi West 5.8 mph - N/A   Overcast
5:55 AM 33.8 °F 27.7 °F 21.2 °F 60% 30.52 in 10.0 mi West 6.9 mph - N/A   Overcast
6:15 AM 33.8 °F 28.6 °F 23.0 °F 65% 30.53 in 10.0 mi WSW 5.8 mph - N/A   Overcast
6:35 AM 33.8 °F 28.6 °F 21.2 °F 60% 30.54 in 10.0 mi West 5.8 mph - N/A   Overcast
6:55 AM 33.8 °F 28.6 °F 21.2 °F 60% 30.54 in 10.0 mi WSW 5.8 mph - N/A   Overcast
7:15 AM 33.8 °F 29.6 °F 21.2 °F 60% 30.55 in 10.0 mi West 4.6 mph - N/A   Overcast
7:35 AM 33.8 °F 28.6 °F 21.2 °F 60% 30.56 in 10.0 mi WSW 5.8 mph - N/A   Overcast
7:55 AM 33.8 °F 28.6 °F 21.2 °F 60% 30.57 in 10.0 mi West 5.8 mph - N/A   Overcast
8:15 AM 33.8 °F 28.6 °F 21.2 °F 60% 30.58 in 10.0 mi WSW 5.8 mph - N/A   Overcast
8:35 AM 33.8 °F 28.6 °F 19.4 °F 56% 30.59 in 10.0 mi West 5.8 mph - N/A   Overcast
8:55 AM 35.6 °F 29.2 °F 19.4 °F 52% 30.59 in 10.0 mi West 8.1 mph - N/A   Partly Cloudy
9:15 AM 35.6 °F 29.9 °F 19.4 °F 52% 30.59 in 10.0 mi West 6.9 mph - N/A   Clear
9:35 AM 35.6 °F 29.9 °F 19.4 °F 52% 30.60 in 10.0 mi West 6.9 mph - N/A   Clear
9:55 AM 35.6 °F 31.7 °F 19.4 °F 52% 30.60 in 10.0 mi West 4.6 mph - N/A   Clear
10:15 AM 37.4 °F 34.9 °F 19.4 °F 48% 30.60 in 10.0 mi WNW 3.5 mph - N/A   Clear
10:35 AM 37.4 °F 33.8 °F 17.6 °F 45% 30.60 in 10.0 mi WSW 4.6 mph - N/A   Clear
10:55 AM 39.2 °F 35.0 °F 19.4 °F 45% 30.59 in 10.0 mi WSW 5.8 mph - N/A   Clear
11:15 AM 39.2 °F 37.0 °F 19.4 °F 45% 30.59 in 10.0 mi West 3.5 mph - N/A   Clear
11:35 AM 39.2 °F 33.6 °F 17.6 °F 42% 30.59 in 10.0 mi WSW 8.1 mph - N/A   Clear
11:55 AM 39.2 °F 34.2 °F 17.6 °F 42% 30.58 in 10.0 mi WSW 6.9 mph - N/A   Clear
12:15 PM 41.0 °F 38.0 °F 19.4 °F 42% 30.58 in 10.0 mi West 4.6 mph - N/A   Clear
12:35 PM 41.0 °F 37.1 °F 19.4 °F 42% 30.58 in 10.0 mi West 5.8 mph - N/A   Clear
12:55 PM 41.0 °F 38.0 °F 19.4 °F 42% 30.58 in 10.0 mi WSW 4.6 mph - N/A   Partly Cloudy
1:15 PM 41.0 °F 37.1 °F 19.4 °F 42% 30.58 in 10.0 mi West 5.8 mph - N/A   Partly Cloudy
1:35 PM 42.8 °F 38.0 °F 19.4 °F 39% 30.58 in 10.0 mi WSW 8.1 mph 18.4 mph N/A   Scattered Clouds
1:55 PM 42.8 °F 39.3 °F 19.4 °F 39% 30.59 in 10.0 mi West 5.8 mph - N/A   Mostly Cloudy
2:15 PM 42.8 °F - 21.2 °F 42% 30.59 in 10.0 mi Calm Calm - N/A   Overcast
2:35 PM 41.0 °F 37.1 °F 19.4 °F 42% 30.59 in 10.0 mi South 5.8 mph - N/A   Overcast
2:55 PM 41.0 °F 38.0 °F 19.4 °F 42% 30.60 in 10.0 mi WSW 4.6 mph - N/A   Overcast
3:15 PM 39.2 °F 37.0 °F 21.2 °F 49% 30.60 in 10.0 mi ENE 3.5 mph - N/A   Overcast
3:35 PM 39.2 °F 35.9 °F 19.4 °F 45% 30.61 in 10.0 mi North 4.6 mph - N/A   Overcast
3:55 PM 39.2 °F - 19.4 °F 45% 30.62 in 10.0 mi Calm Calm - N/A   Scattered Clouds
4:15 PM 39.2 °F - 23.0 °F 52% 30.62 in 10.0 mi Calm Calm - N/A   Clear
4:35 PM 37.4 °F 34.9 °F 21.2 °F 52% 30.62 in 10.0 mi SW 3.5 mph - N/A   Clear
4:55 PM 37.4 °F 34.9 °F 21.2 °F 52% 30.65 in 10.0 mi SW 3.5 mph - N/A   Clear
5:15 PM 37.4 °F 34.9 °F 24.8 °F 60% 30.66 in 10.0 mi NW 3.5 mph - N/A   Clear
5:35 PM 37.4 °F 33.8 °F 24.8 °F 60% 30.67 in 10.0 mi WSW 4.6 mph - N/A   Clear
5:55 PM 37.4 °F 32.8 °F 21.2 °F 52% 30.67 in 10.0 mi WNW 5.8 mph - N/A   Clear
6:15 PM 37.4 °F - 21.2 °F 52% 30.68 in 10.0 mi Calm Calm - N/A   Clear
6:35 PM 37.4 °F 33.8 °F 21.2 °F 52% 30.68 in 10.0 mi SE 4.6 mph - N/A   Clear
6:55 PM 35.6 °F 31.7 °F 17.6 °F 48% 30.69 in 10.0 mi West 4.6 mph - N/A   Clear
7:15 PM 35.6 °F 32.8 °F 19.4 °F 52% 30.69 in 10.0 mi West 3.5 mph - N/A   Clear
7:35 PM 35.6 °F 32.8 °F 17.6 °F 48% 30.70 in 10.0 mi WSW 3.5 mph - N/A   Clear
7:55 PM 35.6 °F 30.7 °F 19.4 °F 52% 30.70 in 10.0 mi WSW 5.8 mph - N/A   Clear
8:15 PM 35.6 °F 32.8 °F 19.4 °F 52% 30.71 in 10.0 mi SSE 3.5 mph - N/A   Clear
8:35 PM 35.6 °F 31.7 °F 21.2 °F 56% 30.71 in 10.0 mi ENE 4.6 mph - N/A   Clear
8:55 PM 33.8 °F - 19.4 °F 56% 30.72 in 10.0 mi Calm Calm - N/A   Clear
9:15 PM 33.8 °F 29.6 °F 19.4 °F 56% 30.72 in 10.0 mi WSW 4.6 mph - N/A   Clear
9:35 PM 33.8 °F 29.6 °F 19.4 °F 56% 30.73 in 10.0 mi WSW 4.6 mph - N/A   Clear
9:55 PM 33.8 °F 30.8 °F 19.4 °F 56% 30.73 in 10.0 mi ENE 3.5 mph - N/A   Clear
10:15 PM 33.8 °F 30.8 °F 19.4 °F 56% 30.73 in 10.0 mi East 3.5 mph - N/A   Clear
10:35 PM 33.8 °F 26.4 °F 17.6 °F 52% 30.74 in 10.0 mi ENE 9.2 mph - N/A   Clear
10:55 PM 33.8 °F 27.7 °F 17.6 °F 52% 30.74 in 10.0 mi NNE 6.9 mph - N/A   Clear
11:15 PM 33.8 °F 28.6 °F 17.6 °F 52% 30.74 in 10.0 mi SE 5.8 mph 21.9 mph N/A   Clear
11:35 PM 33.8 °F 30.8 °F 17.6 °F 52% 30.74 in 10.0 mi NE 3.5 mph - N/A   Clear
11:55 PM 32.0 °F 26.4 °F 15.8 °F 51% 30.75 in 10.0 mi East 5.8 mph - N/A   Clear